Regional Weather Roundup
Issued by NWS

Home | Current Version | Previous Version | Graphics & Text | Print | Product List | Glossary On
Versions: 1 2 3 4 5 6 7 8 9 10 11 12 13 14 15 16 17 18 19 20 21 22 23 24 25 26 27 28 29 30 31 32 33 34 35 36 37 38 39 40 41 42 43 44 45 46 47 48 49 50
000
ASUS45 KPSR 270000
RWRAZ

PRELIMINARY ARIZONA REGIONAL HOURLY WEATHER ROUNDUP
NATIONAL WEATHER SERVICE PHOENIX AZ
500 PM MST MON JAN 26 2015

NOTE: FAIR INDICATES FEW OR NO CLOUDS BELOW 12,000 FEET WITH NO
SIGNIFICANT WEATHER AND/OR OBSTRUCTIONS TO VISIBILITY.

AZZ001>003-036-270100-
NORTHWEST ARIZONA

CITY           SKY/WX    TMP DP  RH WIND       PRES   REMARKS
KINGMAN        CLOUDY    60  24  25 SW12      30.14F
6HR MIN TEMP:  60; 6HR MAX TEMP:  68;

$$

AZZ004>008-015-016-018-270100-
NORTH CENTRAL ARIZONA

CITY           SKY/WX    TMP DP  RH WIND       PRES   REMARKS
GRAND CANYON   PTCLDY    50  23  34 NE14      30.26S
6HR MIN TEMP:  48; 6HR MAX TEMP:  57;

PRESCOTT       CLOUDY    58  23  26 SE8       30.18F
6HR MIN TEMP:  50; 6HR MAX TEMP:  62;

FLAGSTAFF      MOCLDY    48  26  42 E9        30.27S
6HR MIN TEMP:  46; 6HR MAX TEMP:  55;

PAYSON         CLOUDY    54  27  35 VRB5      30.24R
$$

AZZ009>014-017-270100-
NORTHEAST ARIZONA

CITY           SKY/WX    TMP DP  RH WIND       PRES   REMARKS
WINSLOW        CLOUDY    53  28  38 NW5       30.24F
6HR MIN TEMP:  41; 6HR MAX TEMP:  56;

SAINT JOHNS    CLOUDY    56  25  30 W8        30.23S
6HR MIN TEMP:  42; 6HR MAX TEMP:  60;

WINDOW ROCK    CLEAR     55  24  30 E3        30.30S
6HR MIN TEMP:  48; 6HR MAX TEMP:  60;

SHOW LOW       CLOUDY    48  25  40 CALM      30.30R
$$

AZZ023-270100-
GREATER PHOENIX AREA

CITY           SKY/WX    TMP DP  RH WIND       PRES   REMARKS
PHOENIX        CLOUDY    67  30  25 W7        30.07R
6HR MIN TEMP:  66; 6HR MAX TEMP:  71;

GLENDALE       CLOUDY    66  32  28 SE3       30.09S
DEER VALLEY    CLOUDY    67  26  21 W3        30.08S
6HR MIN TEMP:  63; 6HR MAX TEMP:  70; 6HR PCP: TRACE;

SCOTTSDALE     CLOUDY    68  28  22 W5        30.10R
6HR MIN TEMP:  63; 6HR MAX TEMP:  71; 6HR PCP: TRACE;

MESA-FALCON    CLOUDY    68  28  22 VRB5      30.07S
MESA-GATEWAY   CLOUDY    66  34  30 SW7       30.10S
CHANDLER       CLOUDY    66  36  32 S6        30.09R
$$

AZZ027-028-270100-
SOUTHWEST MARICOPA COUNTY AND PINAL COUNTY

CITY           SKY/WX    TMP DP  RH WIND       PRES   REMARKS
CASA GRANDE    CLOUDY    64  30  27 SW3       30.10S
6HR MIN TEMP:  55; 6HR MAX TEMP:  64;

$$

AZZ503-504-507>509-270100-
SOUTHEAST ARIZONA

CITY           SKY/WX    TMP DP  RH WIND       PRES   REMARKS
TUCSON         CLOUDY    68  33  27 NE7       30.11F
6HR MIN TEMP:  58; 6HR MAX TEMP:  68; 6HR PCP: TRACE;

DAVIS-MONTHAN  CLOUDY    64  38  38 NE3       30.10S
6HR MIN TEMP:  61; 6HR MAX TEMP:  66; 6HR PCP: TRACE;

RYAN FIELD       N/A     64  39  39 CALM      30.12S
NOGALES        MOCLDY    67  36  31 SE3       30.13S
6HR MIN TEMP:  56; 6HR MAX TEMP:  69; 6HR PCP: TRACE;

SIERRA VISTA   MOCLDY    61  27  27 SE10      30.18S
                                      6HR PCP: TRACE;

DOUGLAS        CLOUDY    62  27  26 SE9       30.19S
6HR MIN TEMP:  51; 6HR MAX TEMP:  65;

SAFFORD        CLOUDY    63  25  23 S6        30.17S
6HR MIN TEMP:  59; 6HR MAX TEMP:  65;

$$

AZZ020-021-025-026-031-270100-
SOUTHWEST ARIZONA

CITY           SKY/WX    TMP DP  RH WIND       PRES   REMARKS
YUMA           CLOUDY    59  52  77 NE8       30.07R
6HR MIN TEMP:  57; 6HR MAX TEMP:  64; 6HR PCP: TRACE;

$$

CAZ031-033-041-043-047-048-061-270100-
SOUTHERN CALIFORNIA

CITY           SKY/WX    TMP DP  RH WIND       PRES   REMARKS
DOWNTOWN L.A.  CLOUDY    69  43  38 VRB7      30.03R
6HR MIN TEMP:  69; 6HR MAX TEMP:  80;

L.A. AIRPORT   LGT RAIN  66  44  45 S15       30.03R
6HR MIN TEMP:  66; 6HR MAX TEMP:  76; 6HR PCP: TRACE;

SAN DIEGO      CLOUDY    65  48  54 CALM      30.04F
6HR MIN TEMP:  63; 6HR MAX TEMP:  72; 6HR PCP:  0.04;

BURBANK        CLOUDY    67  41  38 SE13      30.04R
6HR MIN TEMP:  67; 6HR MAX TEMP:  75;

ONTARIO        RAIN      60  54  80 CALM      30.07R
6HR MIN TEMP:  60; 6HR MAX TEMP:  78; 6HR PCP:  0.10;

RIVERSIDE      HVY RAIN  59  54  83 S9        30.07R
6HR MIN TEMP:  59; 6HR MAX TEMP:  77; 6HR PCP:  0.14;

PALM SPRINGS   LGT RAIN  61  52  72 E3        30.10R
6HR MIN TEMP:  61; 6HR MAX TEMP:  67; 6HR PCP:  0.06;

EL CENTRO NAS  CLOUDY    58  56  93 N5        30.08R
6HR MIN TEMP:  58; 6HR MAX TEMP:  67; 6HR PCP:  0.11;

IMPERIAL       LGT RAIN  58  56  93 NW5       30.07S FOG
6HR MIN TEMP:  58; 6HR MAX TEMP:  66; 6HR PCP:  0.05;

BLYTHE         LGT RAIN  56  49  77 NE8       30.10R
6HR MIN TEMP:  53; 6HR MAX TEMP:  61; 6HR PCP:  0.12;

NEEDLES        CLOUDY    65  43  44 NE3       30.09F
6HR MIN TEMP:  64; 6HR MAX TEMP:  69; 6HR PCP:  0.01;

$$

NVZ020-UTZ003-270100-
SOUTHERN NEVADA-UTAH

CITY           SKY/WX    TMP DP  RH WIND       PRES   REMARKS
LAS VEGAS      CLOUDY    68  30  24 S8        30.07R
6HR MIN TEMP:  63; 6HR MAX TEMP:  69;

SALT LAKE CITY PTCLDY    45  35  68 W8        30.20F
6HR MIN TEMP:  45; 6HR MAX TEMP:  51;

$$

NMZ009-TXZ055-270100-
NEW MEXICO-WEST TEXAS

CITY           SKY/WX    TMP DP  RH WIND       PRES   REMARKS
ALBUQUERQUE    PTCLDY    56  26  31 CALM      30.32S
6HR MIN TEMP:  42; 6HR MAX TEMP:  58;

EL PASO        CLOUDY    58  27  30 N3        30.26R
6HR MIN TEMP:  53; 6HR MAX TEMP:  61;

$$


........................KEY........................
SKY/WX - SKY CONDITION/WEATHER
TMP    - TEMPERATURE IN FAHRENHEIT
DP     - DEW POINT IN FAHRENHEIT
RH     - RELATIVE HUMIDITY IN PERCENT
WIND   - DIRECTION AND SPEED IN MILES PER HOUR (MPH)
VRB    - VARIABLE WIND DIRECTION
PRES   - MEAN SEA LEVEL PRESSURE IN INCHES OF MERCURY
         F - FALLING PRESSURE   R - RISING PRESSURE
         S - STEADY PRESSURE
VSB    - VISIBILITY IN MILES
HX     - HEAT INDEX IN FAHRENHEIT
WCI    - WIND CHILL INDEX IN FAHRENHEIT
TC     - TEMPERATURE IN CELSIUS WHICH IS ALSO KNOWN AS
         TEMPERATURE IN CENTIGRADE
AFB    - AIR FORCE BASE
         LUKE AFB IS LUKE AIR FORCE BASE
         DAVIS-MONTHAN IS DAVIS-MONTHAN AIR FORCE BASE
NAS    - NAVAL AIR STATION
         EL CENTRO NAS IS EL CENTRO NAVAL AIR STATION
N/A    - NOT AVAILABLE


USA.gov is the U.S. government's official web portal to all federal, state and local government web resources and services.